EW2887 Weather Reports


Display with metric or nautical units.
time (UTC)temp
F
wind
direction
speed
MPH
gust
MPH
rain 1hr
in
rain 24hr
in
rain mn
in
humidity
%
barometer
mb
20260902234510 87 147 12.0 18.0 0.00 0.00 0.00 40 1006.1
20260902233011 88 360 10.0 19.0 0.00 0.00 0.00 37 1006.0
20260902231509 89 167 10.0 18.0 0.00 0.00 0.00 37 1005.8
20260902230010 90 153 12.0 19.0 0.00 0.00 0.00 36 1005.6
20260902224508 91 172 10.0 19.0 0.00 0.00 0.00 36 1005.7
20260902223122 91 180 12.0 18.0 0.00 0.00 0.00 34 1005.8
20260902221505 91 360 8.0 19.0 0.00 0.00 0.00 36 1005.9
20260902220004 90 108 3.0 9.0 0.00 0.00 0.00 35 1006.2
20260902214504 93 315 3.0 11.0 0.00 0.00 0.00 36 1006.5
20260902213002 93 146 12.0 23.0 0.00 0.00 0.00 32 1006.2
20260902211502 93 163 11.0 20.0 0.00 0.00 0.00 34 1006.2
20260902210002 91 360 11.0 18.0 0.00 0.00 0.00 36 1006.1
20260902204635 90 360 12.0 21.0 0.00 0.00 0.00 38 1006.3
20260902203056 88 360 10.0 20.0 0.00 0.00 0.00 42 1006.9
20260902201553 86 180 18.0 29.0 0.00 0.00 0.00 42 1007.2
20260902200053 90 216 19.0 28.0 0.00 0.00 0.00 36 1007.2
20260902194551 93 117 9.0 21.0 0.00 0.00 0.00 32 1007.2
20260902193051 93 360 7.0 19.0 0.00 0.00 0.00 31 1007.3
20260902191548 93 197 11.0 20.0 0.00 0.00 0.00 32 1007.5
20260902190046 94 221 11.0 25.0 0.00 0.00 0.00 33 1007.6
20260902184543 93 236 15.0 21.0 0.00 0.00 0.00 33 1007.9
20260902183053 91 186 10.0 21.0 0.00 0.00 0.00 35 1008.4
20260902181540 91 221 16.0 24.0 0.00 0.00 0.00 34 1008.8
20260902180042 90 222 17.0 23.0 0.00 0.00 0.00 36 1009.0
20260902174532 89 193 16.0 20.0 0.00 0.00 0.00 37 1009.4
20260902173036 89 205 16.0 22.0 0.00 0.00 0.00 37 1009.5
20260902171531 89 190 12.0 22.0 0.00 0.00 0.00 38 1009.6
20260902170033 88 225 15.0 23.0 0.00 0.00 0.00 39 1009.8
20260902164530 87 212 16.0 24.0 0.00 0.00 0.00 41 1010.1
20260902163022 87 196 13.0 24.0 0.00 0.00 0.00 42 1010.2
20260902161518 85 215 17.0 25.0 0.00 0.00 0.00 43 1010.3
20260902160017 85 238 17.0 23.0 0.00 0.00 0.00 43 1010.2
20260902154513 84 232 16.0 23.0 0.00 0.00 0.00 45 1010.2
20260902153011 83 225 17.0 23.0 0.00 0.00 0.00 45 1010.2
20260902151506 81 213 17.0 20.0 0.00 0.00 0.00 47 1010.3
20260902150006 80 234 11.0 20.0 0.00 0.00 0.00 48 1010.4
20260902144600 79 217 11.0 17.0 0.00 0.00 0.00 48 1010.3
20260902143057 77 203 9.0 18.0 0.00 0.00 0.00 50 1010.3
20260902141554 75 215 9.0 17.0 0.00 0.00 0.00 53 1010.3
20260902140054 74 185 11.0 19.0 0.00 0.00 0.00 53 1010.2
20260902134551 73 211 13.0 19.0 0.00 0.00 0.00 55 1010.1
20260902133050 72 190 12.0 17.0 0.00 0.00 0.00 56 1010.0
20260902131546 72 201 12.0 21.0 0.00 0.00 0.00 56 1009.7
20260902130044 72 195 15.0 18.0 0.00 0.00 0.00 56 1009.5
20260902124543 72 193 14.0 19.0 0.00 0.00 0.00 56 1009.4
20260902123039 72 213 14.0 19.0 0.00 0.00 0.00 55 1009.3
20260902121539 73 209 15.0 18.0 0.00 0.00 0.00 54 1009.2
20260902120036 72 200 14.0 17.0 0.00 0.00 0.00 54 1009.1
20260902114535 72 207 11.0 17.0 0.00 0.00 0.00 54 1008.9
20260902113033 73 190 11.0 19.0 0.00 0.00 0.00 53 1008.9
20260902111531 73 203 13.0 21.0 0.00 0.00 0.00 52 1008.9
20260902110044 74 184 14.0 22.0 0.00 0.00 0.00 52 1009.0
20260902104550 74 213 15.0 20.0 0.00 0.00 0.00 52 1009.0
20260902103045 74 174 12.0 20.0 0.00 0.00 0.00 51 1008.9
20260902101525 75 222 15.0 22.0 0.00 0.00 0.00 50 1009.1
20260902100025 75 202 15.0 19.0 0.00 0.00 0.00 51 1009.1
20260902094523 74 221 14.0 21.0 0.00 0.00 0.00 52 1009.1
20260902093021 74 200 12.0 17.0 0.00 0.00 0.00 52 1009.2
20260902091519 74 198 12.0 18.0 0.00 0.00 0.00 52 1009.3
20260902090025 74 195 11.0 16.0 0.00 0.00 0.00 52 1009.4
20260902084516 74 183 10.0 17.0 0.00 0.00 0.00 52 1009.5
20260902083014 74 185 11.0 19.0 0.00 0.00 0.00 52 1009.5
20260902081510 73 200 8.0 15.0 0.00 0.00 0.00 53 1009.6
20260902080010 73 166 10.0 15.0 0.00 0.00 0.00 52 1009.7
20260902074507 74 185 8.0 15.0 0.00 0.00 0.00 52 1009.7
20260902073008 74 360 9.0 15.0 0.00 0.00 0.00 52 1009.7
20260902071504 74 196 8.0 13.0 0.00 0.00 0.00 52 1009.6
20260902070007 75 182 9.0 14.0 0.00 0.00 0.00 50 1009.6
20260902064508 75 171 9.0 15.0 0.00 0.00 0.00 50 1009.7
20260902063003 75 194 9.0 14.0 0.00 0.00 0.00 51 1009.7
20260902061621 74 178 6.0 12.0 0.00 0.00 0.00 51 1009.6
20260902060109 75 180 7.0 13.0 0.00 0.00 0.00 50 1009.5
20260902054557 75 200 7.0 12.0 0.00 0.00 0.00 51 1009.6
20260902053102 74 189 7.0 12.0 0.00 0.00 0.00 51 1009.6
20260902051605 75 192 7.0 11.0 0.00 0.00 0.00 49 1009.6
20260902050049 77 173 5.0 9.0 0.00 0.00 0.00 47 1009.5
20260902044605 77 176 5.0 9.0 0.00 0.00 0.00 46 1009.5
20260902043049 78 142 4.0 8.0 0.00 0.00 0.00 45 1009.6
20260902041551 78 177 4.0 8.0 0.00 0.00 0.00 43 1009.5
20260902040047 79 180 4.0 10.0 0.00 0.00 0.00 42 1009.4
20260902034547 80 153 5.0 10.0 0.00 0.00 0.00 41 1009.2
20260902033046 81 167 4.0 8.0 0.00 0.00 0.00 40 1009.1
20260902031556 81 360 4.0 9.0 0.00 0.00 0.00 40 1009.0
20260902030046 82 166 4.0 7.0 0.00 0.00 0.00 39 1008.8
20260902024552 83 360 4.0 8.0 0.00 0.00 0.00 38 1008.7
20260902023046 83 152 3.0 9.0 0.00 0.00 0.00 37 1008.4
20260902021549 84 154 4.0 9.0 0.00 0.00 0.00 37 1008.1
20260902020045 84 153 5.0 9.0 0.00 0.00 0.00 37 1007.9
20260902014543 84 178 4.0 9.0 0.00 0.00 0.00 35 1007.9
20260902013045 85 153 5.0 9.0 0.00 0.00 0.00 34 1007.9
20260902011543 87 360 4.0 11.0 0.00 0.00 0.00 32 1007.6
20260902010045 87 183 6.0 9.0 0.00 0.00 0.00 30 1007.6
20260902004541 89 192 6.0 14.0 0.00 0.00 0.00 28 1007.3
20260902003041 90 360 10.0 17.0 0.00 0.00 0.00 29 1007.3
20260902001540 90 173 9.0 16.0 0.00 0.00 0.00 29 1007.3
20260902000040 91 360 8.0 18.0 0.00 0.00 0.00 28 1007.2